Location: Unspecified
(48.2082°N, 0.0000°E)
Time: 21:49:49
(UTC+00:00)

S-56A Canister/Altair - Pass Details

Date: 25 June 2019
Orbit: 632 x 2500 km, 38.9° (Epoch: 19 July)

Event Time Altitude Azimuth Distance (km) Brightness Sun altitude
Rises 15:58:25 0° 244° (WSW) 5,319 12.7 37.7°
Reaches altitude 10° 16:02:35 10° 239° (WSW) 4,023 12.2 37.0°
Maximum altitude 16:11:39 40° 175° (S) 1,793 9.8 35.5°
Drops below altitude 10° 16:17:51 10° 107° (ESE) 2,754 10.0 34.5°
Sets 16:20:12 0° 99° (E) 3,511 10.4 34.1°
